Time,TemperatureF,DewpointF,PressureIn,WindDirection,WindDirectionDegrees,WindSpeedMPH,WindSpeedGustMPH,Humidity,HourlyPrecipIn,Conditions,Clouds,dailyrainin,SoftwareType,DateUTC
2013-07-12 00:00:00,65.6,63.5,29.95,NNW,333,0.0,1.0,93,0.00,,,0.00,WUHU216DAVISVP2,2013-07-12 04:00:00,
2013-07-12 00:01:00,65.6,63.5,29.95,NNW,333,0.0,1.0,93,0.00,,,0.00,WUHU216DAVISVP2,2013-07-12 04:01:00,
2013-07-12 00:06:00,65.6,63.5,29.95,NNW,333,0.0,1.0,93,0.00,,,0.00,WUHU216DAVISVP2,2013-07-12 04:06:00,
2013-07-12 00:11:00,65.4,63.6,29.95,NNW,333,0.0,1.0,94,0.00,,,0.00,WUHU216DAVISVP2,2013-07-12 04:11:00,
2013-07-12 00:16:00,65.4,63.6,29.96,NNW,333,0.0,1.0,94,0.00,,,0.00,WUHU216DAVISVP2,2013-07-12 04:16:00,
2013-07-12 00:21:00,65.4,63.6,29.95,NNW,333,0.0,1.0,94,0.00,,,0.00,WUHU216DAVISVP2,2013-07-12 04:21:00,
2013-07-12 00:26:00,65.4,63.6,29.95,NNW,333,0.0,1.0,94,0.00,,,0.00,WUHU216DAVISVP2,2013-07-12 04:26:00,
2013-07-12 00:31:00,65.4,63.6,29.94,NNW,333,1.0,1.0,94,0.00,,,0.00,WUHU216DAVISVP2,2013-07-12 04:31:00,
2013-07-12 00:36:00,65.4,63.6,29.94,NNW,333,0.0,2.0,94,0.00,,,0.00,WUHU216DAVISVP2,2013-07-12 04:36:00,
2013-07-12 00:41:00,65.3,63.5,29.93,NNW,333,0.0,2.0,94,0.00,,,0.00,WUHU216DAVISVP2,2013-07-12 04:41:00,
2013-07-12 00:46:00,65.2,63.4,29.94,NNW,333,0.0,2.0,94,0.00,,,0.00,WUHU216DAVISVP2,2013-07-12 04:46:00,
2013-07-12 00:51:00,65.2,63.4,29.94,NNW,333,0.0,2.0,94,0.00,,,0.00,WUHU216DAVISVP2,2013-07-12 04:51:00,
2013-07-12 00:56:00,65.1,63.3,29.93,NNW,333,0.0,1.0,94,0.00,,,0.00,WUHU216DAVISVP2,2013-07-12 04:56:00,
2013-07-12 01:01:00,65.0,63.2,29.94,NNW,333,0.0,2.0,94,0.00,,,0.00,WUHU216DAVISVP2,2013-07-12 05:01:00,
2013-07-12 01:06:00,64.9,63.1,29.94,NNW,333,1.0,2.0,94,0.00,,,0.00,WUHU216DAVISVP2,2013-07-12 05:06:00,
2013-07-12 01:11:00,64.7,62.6,29.94,NNW,333,0.0,2.0,93,0.00,,,0.00,WUHU216DAVISVP2,2013-07-12 05:11:00,
2013-07-12 01:16:00,64.7,62.9,29.94,NNW,333,0.0,2.0,94,0.00,,,0.00,WUHU216DAVISVP2,2013-07-12 05:16:00,
2013-07-12 01:21:00,64.6,62.8,29.94,NNW,333,0.0,2.0,94,0.00,,,0.00,WUHU216DAVISVP2,2013-07-12 05:21:00,
2013-07-12 01:26:00,64.6,62.8,29.95,NNW,333,0.0,2.0,94,0.00,,,0.00,WUHU216DAVISVP2,2013-07-12 05:26:00,
2013-07-12 01:31:00,64.6,62.8,29.95,NNW,333,0.0,2.0,94,0.00,,,0.00,WUHU216DAVISVP2,2013-07-12 05:31:00,
2013-07-12 01:36:00,64.6,62.8,29.95,NNW,333,0.0,1.0,94,0.00,,,0.00,WUHU216DAVISVP2,2013-07-12 05:36:00,
2013-07-12 01:41:00,64.7,63.2,29.95,NNW,333,0.0,0.0,95,0.00,,,0.00,WUHU216DAVISVP2,2013-07-12 05:41:00,
2013-07-12 01:46:00,64.7,63.2,29.96,NNW,333,0.0,0.0,95,0.01,,,0.01,WUHU216DAVISVP2,2013-07-12 05:46:00,
2013-07-12 01:51:00,64.7,63.2,29.95,NNW,341,0.0,2.0,95,0.02,,,0.02,WUHU216DAVISVP2,2013-07-12 05:51:00,
2013-07-12 01:56:00,64.7,63.2,29.95,NNW,340,0.0,2.0,95,0.02,,,0.02,WUHU216DAVISVP2,2013-07-12 05:56:00,
2013-07-12 02:01:00,64.6,63.1,29.96,NNW,341,0.0,2.0,95,0.03,,,0.03,WUHU216DAVISVP2,2013-07-12 06:01:00,
2013-07-12 02:06:00,64.5,63.3,29.96,NNW,340,0.0,2.0,96,0.04,,,0.04,WUHU216DAVISVP2,2013-07-12 06:06:00,
2013-07-12 02:11:00,64.5,63.3,29.96,NNW,343,0.0,2.0,96,0.04,,,0.04,WUHU216DAVISVP2,2013-07-12 06:11:00,
2013-07-12 02:16:00,64.4,63.2,29.96,North,354,2.0,3.0,96,0.05,,,0.05,WUHU216DAVISVP2,2013-07-12 06:16:00,
2013-07-12 02:21:00,64.3,63.1,29.95,NNW,342,0.0,4.0,96,0.06,,,0.06,WUHU216DAVISVP2,2013-07-12 06:21:00,
2013-07-12 02:26:00,64.1,62.9,29.96,NNW,337,0.0,4.0,96,0.08,,,0.08,WUHU216DAVISVP2,2013-07-12 06:26:00,
2013-07-12 02:31:00,63.9,62.7,29.95,NNW,337,0.0,4.0,96,0.09,,,0.09,WUHU216DAVISVP2,2013-07-12 06:31:00,
2013-07-12 02:36:00,63.8,62.6,29.96,NNW,337,0.0,4.0,96,0.09,,,0.09,WUHU216DAVISVP2,2013-07-12 06:36:00,
2013-07-12 02:41:00,63.7,62.5,29.95,NNW,337,0.0,3.0,96,0.09,,,0.09,WUHU216DAVISVP2,2013-07-12 06:41:00,
2013-07-12 02:46:00,63.7,62.8,29.96,ESE,115,0.0,3.0,97,0.08,,,0.09,WUHU216DAVISVP2,2013-07-12 06:46:00,
2013-07-12 02:51:00,63.7,62.5,29.95,ESE,115,0.0,3.0,96,0.07,,,0.09,WUHU216DAVISVP2,2013-07-12 06:51:00,
2013-07-12 02:56:00,63.6,62.4,29.95,ESE,110,0.0,3.0,96,0.08,,,0.10,WUHU216DAVISVP2,2013-07-12 06:56:00,
2013-07-12 03:01:00,63.5,62.3,29.95,NE,46,0.0,3.0,96,0.07,,,0.10,WUHU216DAVISVP2,2013-07-12 07:01:00,
2013-07-12 03:06:00,63.4,62.2,29.95,ENE,75,3.0,3.0,96,0.06,,,0.10,WUHU216DAVISVP2,2013-07-12 07:06:00,
2013-07-12 03:11:00,63.4,62.5,29.95,East,86,0.0,5.0,97,0.06,,,0.10,WUHU216DAVISVP2,2013-07-12 07:11:00,
2013-07-12 03:16:00,63.4,62.5,29.94,East,81,1.0,5.0,97,0.05,,,0.10,WUHU216DAVISVP2,2013-07-12 07:16:00,
2013-07-12 03:21:00,63.2,62.3,29.94,ENE,58,1.0,5.0,97,0.04,,,0.10,WUHU216DAVISVP2,2013-07-12 07:21:00,
2013-07-12 03:26:00,63.2,62.3,29.94,NNE,13,2.0,3.0,97,0.02,,,0.10,WUHU216DAVISVP2,2013-07-12 07:26:00,
2013-07-12 03:31:00,63.1,62.2,29.94,North,354,0.0,3.0,97,0.01,,,0.10,WUHU216DAVISVP2,2013-07-12 07:31:00,
2013-07-12 03:36:00,63.0,61.8,29.94,North,354,0.0,3.0,96,0.01,,,0.10,WUHU216DAVISVP2,2013-07-12 07:36:00,
2013-07-12 03:41:00,63.0,62.1,29.94,North,354,0.0,3.0,97,0.01,,,0.10,WUHU216DAVISVP2,2013-07-12 07:41:00,
2013-07-12 03:46:00,63.0,62.1,29.94,North,354,0.0,3.0,97,0.01,,,0.10,WUHU216DAVISVP2,2013-07-12 07:46:00,
2013-07-12 03:51:00,63.0,62.1,29.94,North,354,0.0,1.0,97,0.01,,,0.10,WUHU216DAVISVP2,2013-07-12 07:51:00,
2013-07-12 03:56:00,63.0,62.1,29.94,North,354,0.0,0.0,97,0.00,,,0.10,WUHU216DAVISVP2,2013-07-12 07:56:00,
2013-07-12 04:01:00,63.0,62.1,29.95,North,354,0.0,0.0,97,0.00,,,0.10,WUHU216DAVISVP2,2013-07-12 08:01:00,
2013-07-12 04:06:00,63.0,62.1,29.94,North,354,0.0,2.0,97,0.00,,,0.10,WUHU216DAVISVP2,2013-07-12 08:06:00,
2013-07-12 04:11:00,63.0,62.1,29.94,North,354,0.0,2.0,97,0.00,,,0.10,WUHU216DAVISVP2,2013-07-12 08:11:00,
2013-07-12 04:16:00,63.0,62.1,29.94,North,354,0.0,2.0,97,0.00,,,0.10,WUHU216DAVISVP2,2013-07-12 08:16:00,
2013-07-12 04:21:00,63.1,62.2,29.94,North,354,0.0,2.0,97,0.00,,,0.10,WUHU216DAVISVP2,2013-07-12 08:21:00,
2013-07-12 04:26:00,63.0,62.1,29.94,North,354,0.0,2.0,97,0.00,,,0.10,WUHU216DAVISVP2,2013-07-12 08:26:00,
2013-07-12 04:31:00,62.9,62.0,29.94,North,354,0.0,2.0,97,0.00,,,0.10,WUHU216DAVISVP2,2013-07-12 08:31:00,
2013-07-12 04:36:00,62.8,61.9,29.94,North,354,0.0,2.0,97,0.00,,,0.10,WUHU216DAVISVP2,2013-07-12 08:36:00,
2013-07-12 04:41:00,62.7,61.8,29.94,North,354,2.0,4.0,97,0.00,,,0.10,WUHU216DAVISVP2,2013-07-12 08:41:00,
2013-07-12 04:46:00,62.6,61.7,29.94,North,354,1.0,4.0,97,0.00,,,0.10,WUHU216DAVISVP2,2013-07-12 08:46:00,
2013-07-12 04:51:00,62.5,61.6,29.94,NNW,348,1.0,4.0,97,0.00,,,0.10,WUHU216DAVISVP2,2013-07-12 08:51:00,
2013-07-12 04:56:00,62.4,61.5,29.94,NNW,348,0.0,4.0,97,0.00,,,0.10,WUHU216DAVISVP2,2013-07-12 08:56:00,
2013-07-12 05:01:00,62.3,61.4,29.94,NNW,348,0.0,4.0,97,0.00,,,0.10,WUHU216DAVISVP2,2013-07-12 09:01:00,
2013-07-12 05:06:00,62.3,61.4,29.94,NNW,348,0.0,4.0,97,0.00,,,0.10,WUHU216DAVISVP2,2013-07-12 09:06:00,
2013-07-12 05:11:00,62.2,61.3,29.94,NNW,347,1.0,3.0,97,0.00,,,0.10,WUHU216DAVISVP2,2013-07-12 09:11:00,
2013-07-12 05:16:00,62.2,61.3,29.95,NNW,340,2.0,3.0,97,0.00,,,0.10,WUHU216DAVISVP2,2013-07-12 09:16:00,
2013-07-12 05:21:00,62.1,61.2,29.95,NNW,340,0.0,3.0,97,0.00,,,0.10,WUHU216DAVISVP2,2013-07-12 09:21:00,
2013-07-12 05:26:00,62.1,61.2,29.95,NNW,340,0.0,3.0,97,0.00,,,0.10,WUHU216DAVISVP2,2013-07-12 09:26:00,
2013-07-12 05:31:00,62.0,61.1,29.95,NNW,340,0.0,3.0,97,0.00,,,0.10,WUHU216DAVISVP2,2013-07-12 09:31:00,
2013-07-12 05:36:00,61.9,61.0,29.95,NNW,340,0.0,4.0,97,0.00,,,0.10,WUHU216DAVISVP2,2013-07-12 09:36:00,
2013-07-12 05:41:00,61.8,60.9,29.95,NW,307,2.0,5.0,97,0.00,,,0.10,WUHU216DAVISVP2,2013-07-12 09:41:00,
2013-07-12 05:46:00,61.6,60.7,29.95,NW,307,0.0,5.0,97,0.00,,,0.10,WUHU216DAVISVP2,2013-07-12 09:46:00,
2013-07-12 05:51:00,61.5,60.6,29.95,NW,308,0.0,5.0,97,0.00,,,0.10,WUHU216DAVISVP2,2013-07-12 09:51:00,
2013-07-12 05:56:00,61.4,60.5,29.96,NW,308,0.0,3.0,97,0.00,,,0.10,WUHU216DAVISVP2,2013-07-12 09:56:00,
2013-07-12 06:01:00,61.4,60.5,29.95,NW,308,1.0,2.0,97,0.00,,,0.10,WUHU216DAVISVP2,2013-07-12 10:01:00,
2013-07-12 06:06:00,61.3,60.4,29.96,NW,308,0.0,2.0,97,0.00,,,0.10,WUHU216DAVISVP2,2013-07-12 10:06:00,
2013-07-12 06:11:00,61.3,60.4,29.96,NW,309,4.0,4.0,97,0.00,,,0.10,WUHU216DAVISVP2,2013-07-12 10:11:00,
2013-07-12 06:16:00,61.2,60.3,29.96,NNW,343,3.0,5.0,97,0.00,,,0.10,WUHU216DAVISVP2,2013-07-12 10:16:00,
2013-07-12 06:21:00,61.0,60.1,29.97,NNW,341,2.0,6.0,97,0.00,,,0.10,WUHU216DAVISVP2,2013-07-12 10:21:00,
2013-07-12 06:26:00,61.0,60.1,29.96,NW,318,3.0,6.0,97,0.00,,,0.10,WUHU216DAVISVP2,2013-07-12 10:26:00,
2013-07-12 06:31:00,60.9,60.0,29.97,NW,316,1.0,6.0,97,0.00,,,0.10,WUHU216DAVISVP2,2013-07-12 10:31:00,
2013-07-12 06:36:00,60.9,60.0,29.97,NW,316,2.0,6.0,97,0.00,,,0.10,WUHU216DAVISVP2,2013-07-12 10:36:00,
2013-07-12 06:41:00,60.9,60.0,29.97,NW,316,0.0,4.0,97,0.00,,,0.10,WUHU216DAVISVP2,2013-07-12 10:41:00,
2013-07-12 06:46:00,60.9,60.3,29.97,NW,316,0.0,4.0,98,0.00,,,0.10,WUHU216DAVISVP2,2013-07-12 10:46:00,
2013-07-12 06:51:00,60.9,60.3,29.97,NW,316,1.0,4.0,98,0.00,,,0.10,WUHU216DAVISVP2,2013-07-12 10:51:00,
2013-07-12 06:56:00,60.9,60.3,29.97,NW,316,1.0,3.0,98,0.00,,,0.10,WUHU216DAVISVP2,2013-07-12 10:56:00,
2013-07-12 07:01:00,60.8,59.9,29.97,NW,316,2.0,3.0,97,0.00,,,0.10,WUHU216DAVISVP2,2013-07-12 11:01:00,
2013-07-12 07:06:00,60.8,59.9,29.98,NW,316,0.0,3.0,97,0.00,,,0.10,WUHU216DAVISVP2,2013-07-12 11:06:00,
2013-07-12 07:11:00,60.7,60.1,29.98,NW,316,0.0,3.0,98,0.00,,,0.10,WUHU216DAVISVP2,2013-07-12 11:11:00,
2013-07-12 07:16:00,60.7,59.8,29.98,NW,320,0.0,3.0,97,0.00,,,0.10,WUHU216DAVISVP2,2013-07-12 11:16:00,
2013-07-12 07:21:00,60.7,59.8,29.98,NW,320,0.0,3.0,97,0.00,,,0.10,WUHU216DAVISVP2,2013-07-12 11:21:00,
2013-07-12 07:26:00,60.7,59.8,29.98,NW,320,0.0,3.0,97,0.00,,,0.10,WUHU216DAVISVP2,2013-07-12 11:26:00,
2013-07-12 07:31:00,60.8,59.9,29.99,NW,320,2.0,3.0,97,0.00,,,0.10,WUHU216DAVISVP2,2013-07-12 11:31:00,
2013-07-12 07:36:00,60.8,60.2,29.99,NW,320,0.0,3.0,98,0.00,,,0.10,WUHU216DAVISVP2,2013-07-12 11:36:00,
2013-07-12 07:41:00,60.9,60.3,29.99,NW,320,0.0,3.0,98,0.00,,,0.10,WUHU216DAVISVP2,2013-07-12 11:41:00,
2013-07-12 07:46:00,60.9,60.3,29.99,NW,320,2.0,4.0,98,0.00,,,0.10,WUHU216DAVISVP2,2013-07-12 11:46:00,
2013-07-12 07:51:00,60.9,60.3,30.00,NW,320,0.0,4.0,98,0.00,,,0.10,WUHU216DAVISVP2,2013-07-12 11:51:00,
2013-07-12 07:56:00,60.8,59.9,30.00,NW,320,0.0,4.0,97,0.00,,,0.10,WUHU216DAVISVP2,2013-07-12 11:56:00,
2013-07-12 08:01:00,60.9,60.3,30.00,East,90,0.0,4.0,98,0.00,,,0.10,WUHU216DAVISVP2,2013-07-12 12:01:00,
2013-07-12 08:06:00,61.1,60.5,30.00,East,93,0.0,2.0,98,0.00,,,0.10,WUHU216DAVISVP2,2013-07-12 12:06:00,
2013-07-12 08:11:00,61.2,60.6,30.00,East,93,0.0,2.0,98,0.00,,,0.10,WUHU216DAVISVP2,2013-07-12 12:11:00,
2013-07-12 08:16:00,61.4,60.8,30.00,ENE,77,0.0,1.0,98,0.00,,,0.10,WUHU216DAVISVP2,2013-07-12 12:16:00,
2013-07-12 08:21:00,61.4,60.8,30.00,NNW,340,0.0,3.0,98,0.00,,,0.10,WUHU216DAVISVP2,2013-07-12 12:21:00,
2013-07-12 08:26:00,61.5,60.6,30.00,NNW,339,1.0,3.0,97,0.00,,,0.10,WUHU216DAVISVP2,2013-07-12 12:26:00,
2013-07-12 08:31:00,61.6,60.7,30.01,NNW,340,0.0,3.0,97,0.00,,,0.10,WUHU216DAVISVP2,2013-07-12 12:31:00,
2013-07-12 08:36:00,61.8,60.9,30.00,NNW,339,0.0,3.0,97,0.00,,,0.10,WUHU216DAVISVP2,2013-07-12 12:36:00,
2013-07-12 08:41:00,61.9,61.0,30.00,NW,320,2.0,3.0,97,0.00,,,0.10,WUHU216DAVISVP2,2013-07-12 12:41:00,
2013-07-12 08:46:00,62.0,61.1,30.01,NW,322,2.0,3.0,97,0.00,,,0.10,WUHU216DAVISVP2,2013-07-12 12:46:00,
2013-07-12 08:51:00,62.1,61.2,30.01,NW,322,1.0,3.0,97,0.00,,,0.10,WUHU216DAVISVP2,2013-07-12 12:51:00,
2013-07-12 08:56:00,62.2,61.0,30.01,NW,322,0.0,3.0,96,0.00,,,0.10,WUHU216DAVISVP2,2013-07-12 12:56:00,
2013-07-12 09:01:00,62.3,61.1,30.01,NNW,341,2.0,3.0,96,0.00,,,0.10,WUHU216DAVISVP2,2013-07-12 13:01:00,
2013-07-12 09:06:00,62.5,61.0,30.01,NNW,339,1.0,3.0,95,0.00,,,0.10,WUHU216DAVISVP2,2013-07-12 13:06:00,
2013-07-12 09:11:00,62.7,61.2,30.01,North,4,1.0,3.0,95,0.00,,,0.10,WUHU216DAVISVP2,2013-07-12 13:11:00,
2013-07-12 09:16:00,62.9,61.1,30.01,NNW,337,0.0,3.0,94,0.00,,,0.10,WUHU216DAVISVP2,2013-07-12 13:16:00,
2013-07-12 09:21:00,63.1,61.0,30.01,NNW,337,1.0,3.0,93,0.00,,,0.10,WUHU216DAVISVP2,2013-07-12 13:21:00,
2013-07-12 09:26:00,63.3,61.2,30.01,North,350,0.0,3.0,93,0.00,,,0.10,WUHU216DAVISVP2,2013-07-12 13:26:00,
2013-07-12 09:31:00,63.6,61.5,30.01,North,350,0.0,3.0,93,0.00,,,0.10,WUHU216DAVISVP2,2013-07-12 13:31:00,
2013-07-12 09:36:00,63.8,61.4,30.01,North,350,1.0,3.0,92,0.00,,,0.10,WUHU216DAVISVP2,2013-07-12 13:36:00,
2013-07-12 09:37:00,63.8,61.4,30.01,North,350,1.0,3.0,92,0.00,,,0.10,WUHU216DAVISVP2,2013-07-12 13:37:00,
2013-07-12 09:42:00,64.1,61.7,30.01,North,350,0.0,3.0,92,0.00,,,0.10,WUHU216DAVISVP2,2013-07-12 13:42:00,
2013-07-12 09:47:00,64.4,62.0,30.01,North,350,1.0,3.0,92,0.00,,,0.10,WUHU216DAVISVP2,2013-07-12 13:47:00,
2013-07-12 09:52:00,64.6,62.2,30.01,North,350,0.0,2.0,92,0.00,,,0.10,WUHU216DAVISVP2,2013-07-12 13:52:00,
2013-07-12 09:57:00,64.9,62.5,30.01,North,350,0.0,2.0,92,0.00,,,0.10,WUHU216DAVISVP2,2013-07-12 13:57:00,
2013-07-12 10:02:00,65.0,62.0,30.01,North,354,0.0,2.0,90,0.00,,,0.10,WUHU216DAVISVP2,2013-07-12 14:02:00,
2013-07-12 10:07:00,65.3,62.6,30.01,North,354,0.0,1.0,91,0.00,,,0.10,WUHU216DAVISVP2,2013-07-12 14:07:00,
2013-07-12 10:12:00,65.4,62.4,30.01,North,354,0.0,1.0,90,0.00,,,0.10,WUHU216DAVISVP2,2013-07-12 14:12:00,
2013-07-12 10:17:00,65.7,62.7,30.01,North,354,0.0,1.0,90,0.00,,,0.10,WUHU216DAVISVP2,2013-07-12 14:17:00,
2013-07-12 10:21:00,66.0,63.0,30.01,North,354,0.0,1.0,90,0.00,,,0.10,WUHU216DAVISVP2,2013-07-12 14:21:00,
2013-07-12 10:26:00,66.3,63.0,30.01,NNW,341,0.0,3.0,89,0.00,,,0.10,WUHU216DAVISVP2,2013-07-12 14:26:00,
2013-07-12 10:31:00,66.5,62.8,30.01,SW,231,1.0,4.0,88,0.00,,,0.10,WUHU216DAVISVP2,2013-07-12 14:31:00,
2013-07-12 10:36:00,66.7,63.4,30.01,SSW,204,1.0,4.0,89,0.00,,,0.10,WUHU216DAVISVP2,2013-07-12 14:36:00,
2013-07-12 10:41:00,66.9,63.2,30.01,SSW,206,0.0,4.0,88,0.00,,,0.10,WUHU216DAVISVP2,2013-07-12 14:41:00,
2013-07-12 10:46:00,67.3,63.9,30.01,SSW,208,0.0,4.0,89,0.00,,,0.10,WUHU216DAVISVP2,2013-07-12 14:46:00,
2013-07-12 10:51:00,67.6,63.6,30.02,SW,219,1.0,3.0,87,0.00,,,0.10,WUHU216DAVISVP2,2013-07-12 14:51:00,
2013-07-12 10:56:00,67.9,63.9,30.02,SW,226,0.0,3.0,87,0.00,,,0.10,WUHU216DAVISVP2,2013-07-12 14:56:00,
2013-07-12 11:01:00,68.4,64.7,30.02,SW,214,0.0,3.0,88,0.00,,,0.10,WUHU216DAVISVP2,2013-07-12 15:01:00,
2013-07-12 11:07:00,68.9,64.5,30.02,SSW,211,0.0,3.0,86,0.00,,,0.10,WUHU216DAVISVP2,2013-07-12 15:07:00,
2013-07-12 11:11:00,69.3,64.9,30.02,SSW,199,2.0,2.0,86,0.00,,,0.10,WUHU216DAVISVP2,2013-07-12 15:11:00,
2013-07-12 11:16:00,69.7,64.7,30.01,SW,214,0.0,4.0,84,0.00,,,0.10,WUHU216DAVISVP2,2013-07-12 15:16:00,
2013-07-12 11:21:00,69.9,65.2,30.02,SSW,211,0.0,4.0,85,0.00,,,0.10,WUHU216DAVISVP2,2013-07-12 15:21:00,
2013-07-12 11:27:00,70.1,65.1,30.01,SSW,208,0.0,4.0,84,0.00,,,0.10,WUHU216DAVISVP2,2013-07-12 15:27:00,
2013-07-12 11:32:00,70.4,65.4,30.02,SSW,206,0.0,4.0,84,0.00,,,0.10,WUHU216DAVISVP2,2013-07-12 15:32:00,
2013-07-12 11:37:00,70.4,64.7,30.01,SSW,206,1.0,3.0,82,0.00,,,0.10,WUHU216DAVISVP2,2013-07-12 15:37:00,
2013-07-12 11:42:00,70.5,65.1,30.01,SSW,206,1.0,3.0,83,0.00,,,0.10,WUHU216DAVISVP2,2013-07-12 15:42:00,
2013-07-12 11:47:00,70.7,65.3,30.01,WSW,249,2.0,4.0,83,0.00,,,0.10,WUHU216DAVISVP2,2013-07-12 15:47:00,
2013-07-12 11:52:00,71.1,65.7,30.01,West,280,0.0,4.0,83,0.00,,,0.10,WUHU216DAVISVP2,2013-07-12 15:52:00,
2013-07-12 11:57:00,71.5,65.8,30.01,WNW,303,3.0,4.0,82,0.00,,,0.10,WUHU216DAVISVP2,2013-07-12 15:57:00,
2013-07-12 12:02:00,71.5,65.4,30.01,NW,322,2.0,4.0,81,0.00,,,0.10,WUHU216DAVISVP2,2013-07-12 16:02:00,
2013-07-12 12:07:00,71.5,65.1,30.01,West,281,0.0,4.0,80,0.00,,,0.10,WUHU216DAVISVP2,2013-07-12 16:07:00,
2013-07-12 12:11:00,71.6,65.5,30.01,NW,325,2.0,4.0,81,0.00,,,0.10,WUHU216DAVISVP2,2013-07-12 16:11:00,
2013-07-12 12:16:00,71.8,65.7,30.01,NW,312,0.0,4.0,81,0.00,,,0.10,WUHU216DAVISVP2,2013-07-12 16:16:00,
2013-07-12 12:21:00,72.1,66.7,30.01,WNW,289,1.0,4.0,83,0.00,,,0.10,WUHU216DAVISVP2,2013-07-12 16:21:00,
2013-07-12 12:26:00,72.4,65.6,30.01,NW,316,1.0,5.0,79,0.00,,,0.10,WUHU216DAVISVP2,2013-07-12 16:26:00,
2013-07-12 12:31:00,72.6,65.8,30.01,NW,316,0.0,5.0,79,0.00,,,0.10,WUHU216DAVISVP2,2013-07-12 16:31:00,
2013-07-12 12:36:00,72.7,65.6,30.01,North,359,1.0,5.0,78,0.00,,,0.10,WUHU216DAVISVP2,2013-07-12 16:36:00,
2013-07-12 12:41:00,72.6,66.2,30.01,North,359,0.0,5.0,80,0.00,,,0.10,WUHU216DAVISVP2,2013-07-12 16:41:00,
2013-07-12 12:46:00,72.5,65.7,30.01,North,359,0.0,4.0,79,0.00,,,0.10,WUHU216DAVISVP2,2013-07-12 16:46:00,
2013-07-12 12:51:00,72.4,65.6,30.01,North,359,1.0,4.0,79,0.00,,,0.10,WUHU216DAVISVP2,2013-07-12 16:51:00,
2013-07-12 12:57:00,72.4,66.3,30.01,ENE,64,0.0,5.0,81,0.00,,,0.10,WUHU216DAVISVP2,2013-07-12 16:57:00,
2013-07-12 13:02:00,72.8,66.7,30.01,ENE,68,0.0,5.0,81,0.00,,,0.10,WUHU216DAVISVP2,2013-07-12 17:02:00,
2013-07-12 13:07:00,73.1,66.3,30.01,NNE,33,6.0,7.0,79,0.00,,,0.10,WUHU216DAVISVP2,2013-07-12 17:07:00,
2013-07-12 13:12:00,73.3,65.4,30.01,ENE,70,4.0,7.0,76,0.00,,,0.10,WUHU216DAVISVP2,2013-07-12 17:12:00,
2013-07-12 13:17:00,73.3,65.4,30.01,ENE,74,1.0,7.0,76,0.00,,,0.10,WUHU216DAVISVP2,2013-07-12 17:17:00,
2013-07-12 13:22:00,73.5,66.0,30.01,East,80,1.0,7.0,77,0.00,,,0.10,WUHU216DAVISVP2,2013-07-12 17:22:00,
2013-07-12 13:27:00,73.4,65.1,30.01,NE,45,3.0,7.0,75,0.00,,,0.10,WUHU216DAVISVP2,2013-07-12 17:27:00,
2013-07-12 13:33:00,73.3,65.4,30.01,East,89,1.0,8.0,76,0.00,,,0.10,WUHU216DAVISVP2,2013-07-12 17:33:00,
2013-07-12 13:38:00,73.3,65.4,30.01,ENE,77,8.0,8.0,76,0.00,,,0.10,WUHU216DAVISVP2,2013-07-12 17:38:00,
2013-07-12 13:43:00,73.2,65.7,30.01,East,91,1.0,8.0,77,0.00,,,0.10,WUHU216DAVISVP2,2013-07-12 17:43:00,
2013-07-12 13:48:00,73.1,64.9,30.01,East,81,5.0,8.0,75,0.00,,,0.10,WUHU216DAVISVP2,2013-07-12 17:48:00,
2013-07-12 13:54:00,72.8,64.9,30.01,NE,55,1.0,8.0,76,0.00,,,0.10,WUHU216DAVISVP2,2013-07-12 17:54:00,
2013-07-12 13:59:00,72.6,64.7,30.01,ESE,103,2.0,8.0,76,0.00,,,0.10,WUHU216DAVISVP2,2013-07-12 17:59:00,
2013-07-12 14:04:00,72.5,64.6,30.01,East,95,1.0,8.0,76,0.00,,,0.10,WUHU216DAVISVP2,2013-07-12 18:04:00,
2013-07-12 14:09:00,72.5,63.9,30.02,East,81,8.0,8.0,74,0.00,,,0.10,WUHU216DAVISVP2,2013-07-12 18:09:00,
2013-07-12 14:14:00,72.5,63.9,30.02,East,89,5.0,8.0,74,0.00,,,0.10,WUHU216DAVISVP2,2013-07-12 18:14:00,
2013-07-12 14:19:00,72.5,64.3,30.02,East,91,0.0,8.0,75,0.00,,,0.10,WUHU216DAVISVP2,2013-07-12 18:19:00,
2013-07-12 14:24:00,72.5,64.6,30.02,East,79,1.0,8.0,76,0.00,,,0.10,WUHU216DAVISVP2,2013-07-12 18:24:00,
2013-07-12 14:29:00,72.5,64.1,30.02,ENE,62,4.0,8.0,75,0.00,,,0.10,WUHU216DAVISVP2,2013-07-12 18:29:00,
2013-07-12 14:35:00,72.3,63.9,30.02,ENE,63,1.0,8.0,75,0.00,,,0.10,WUHU216DAVISVP2,2013-07-12 18:35:00,
2013-07-12 14:40:00,72.4,64.4,30.02,East,90,3.0,8.0,76,0.00,,,0.10,WUHU216DAVISVP2,2013-07-12 18:40:00,
2013-07-12 14:45:00,72.6,64.6,30.01,East,83,3.0,8.0,76,0.00,,,0.10,WUHU216DAVISVP2,2013-07-12 18:45:00,
2013-07-12 14:50:00,72.8,64.8,30.01,East,98,0.0,5.0,76,0.00,,,0.10,WUHU216DAVISVP2,2013-07-12 18:50:00,
2013-07-12 14:55:00,73.0,63.8,30.01,ENE,62,0.0,5.0,73,0.00,,,0.10,WUHU216DAVISVP2,2013-07-12 18:55:00,
2013-07-12 15:00:00,73.1,64.5,30.01,NNE,16,0.0,5.0,74,0.00,,,0.10,WUHU216DAVISVP2,2013-07-12 19:00:00,
2013-07-12 15:06:00,73.2,64.9,30.01,NNE,26,2.0,5.0,75,0.00,,,0.10,WUHU216DAVISVP2,2013-07-12 19:06:00,
2013-07-12 15:11:00,73.5,65.6,30.00,NE,50,0.0,5.0,76,0.00,,,0.10,WUHU216DAVISVP2,2013-07-12 19:11:00,
2013-07-12 15:16:00,73.9,65.3,30.00,NE,37,0.0,5.0,74,0.00,,,0.10,WUHU216DAVISVP2,2013-07-12 19:16:00,
2013-07-12 15:21:00,74.2,65.2,30.00,NE,39,0.0,5.0,73,0.00,,,0.10,WUHU216DAVISVP2,2013-07-12 19:21:00,
2013-07-12 15:26:00,74.3,64.5,30.00,NNE,20,1.0,5.0,71,0.00,,,0.10,WUHU216DAVISVP2,2013-07-12 19:26:00,
2013-07-12 15:31:00,74.3,64.1,30.00,NNE,23,0.0,5.0,70,0.00,,,0.10,WUHU216DAVISVP2,2013-07-12 19:31:00,
2013-07-12 15:36:00,74.3,64.9,30.00,North,354,5.0,5.0,72,0.00,,,0.10,WUHU216DAVISVP2,2013-07-12 19:36:00,
2013-07-12 15:41:00,74.3,64.1,30.00,NW,317,3.0,5.0,70,0.00,,,0.10,WUHU216DAVISVP2,2013-07-12 19:41:00,
2013-07-12 15:46:00,74.2,64.4,30.00,North,8,4.0,6.0,71,0.00,,,0.10,WUHU216DAVISVP2,2013-07-12 19:46:00,
2013-07-12 15:52:00,74.4,64.6,30.00,NNE,28,0.0,6.0,71,0.00,,,0.10,WUHU216DAVISVP2,2013-07-12 19:52:00,
2013-07-12 15:57:00,74.3,63.3,30.00,NNE,22,2.0,6.0,68,0.00,,,0.10,WUHU216DAVISVP2,2013-07-12 19:57:00,
2013-07-12 16:02:00,74.2,63.6,30.00,North,9,0.0,6.0,69,0.00,,,0.10,WUHU216DAVISVP2,2013-07-12 20:02:00,
2013-07-12 16:07:00,74.3,64.5,30.00,ENE,62,4.0,6.0,71,0.00,,,0.10,WUHU216DAVISVP2,2013-07-12 20:07:00,
2013-07-12 16:12:00,74.2,63.2,30.00,NE,45,1.0,6.0,68,0.00,,,0.10,WUHU216DAVISVP2,2013-07-12 20:12:00,
2013-07-12 16:18:00,74.1,63.9,30.00,East,85,0.0,6.0,70,0.00,,,0.10,WUHU216DAVISVP2,2013-07-12 20:18:00,
2013-07-12 16:23:00,74.0,64.6,30.00,North,354,2.0,5.0,72,0.00,,,0.10,WUHU216DAVISVP2,2013-07-12 20:23:00,
2013-07-12 16:28:00,73.9,64.1,30.00,North,359,4.0,5.0,71,0.00,,,0.10,WUHU216DAVISVP2,2013-07-12 20:28:00,
2013-07-12 16:33:00,73.9,63.3,30.00,NNE,29,2.0,5.0,69,0.00,,,0.10,WUHU216DAVISVP2,2013-07-12 20:33:00,
2013-07-12 16:38:00,73.8,63.6,30.00,NNE,29,1.0,5.0,70,0.00,,,0.10,WUHU216DAVISVP2,2013-07-12 20:38:00,
2013-07-12 16:43:00,73.7,64.7,30.00,North,8,0.0,4.0,73,0.00,,,0.10,WUHU216DAVISVP2,2013-07-12 20:43:00,
2013-07-12 16:48:00,73.7,64.3,30.00,NNE,31,3.0,4.0,72,0.00,,,0.10,WUHU216DAVISVP2,2013-07-12 20:48:00,
2013-07-12 16:53:00,73.7,64.3,30.00,NE,36,1.0,4.0,72,0.00,,,0.10,WUHU216DAVISVP2,2013-07-12 20:53:00,
2013-07-12 16:58:00,73.7,64.3,30.00,North,10,0.0,5.0,72,0.00,,,0.10,WUHU216DAVISVP2,2013-07-12 20:58:00,
2013-07-12 17:03:00,73.6,64.6,30.00,North,4,4.0,5.0,73,0.00,,,0.10,WUHU216DAVISVP2,2013-07-12 21:03:00,
2013-07-12 17:08:00,73.4,64.8,30.00,North,354,4.0,5.0,74,0.00,,,0.10,WUHU216DAVISVP2,2013-07-12 21:08:00,
2013-07-12 17:13:00,73.3,65.0,30.00,NW,304,5.0,6.0,75,0.00,,,0.10,WUHU216DAVISVP2,2013-07-12 21:13:00,
2013-07-12 17:18:00,73.0,64.8,30.01,North,354,3.0,6.0,75,0.00,,,0.10,WUHU216DAVISVP2,2013-07-12 21:18:00,
2013-07-12 17:23:00,72.8,64.9,30.01,NNW,347,3.0,6.0,76,0.00,,,0.10,WUHU216DAVISVP2,2013-07-12 21:23:00,
2013-07-12 17:29:00,72.6,64.7,30.01,NNW,335,4.0,6.0,76,0.00,,,0.10,WUHU216DAVISVP2,2013-07-12 21:29:00,
2013-07-12 17:34:00,72.4,64.9,30.01,NW,318,0.0,6.0,77,0.00,,,0.10,WUHU216DAVISVP2,2013-07-12 21:34:00,
2013-07-12 17:39:00,72.2,65.1,30.01,NNW,329,2.0,6.0,78,0.00,,,0.10,WUHU216DAVISVP2,2013-07-12 21:39:00,
2013-07-12 17:44:00,71.9,65.5,30.01,North,359,1.0,6.0,80,0.00,,,0.10,WUHU216DAVISVP2,2013-07-12 21:44:00,
2013-07-12 17:49:00,71.7,65.6,30.01,NW,322,2.0,6.0,81,0.00,,,0.10,WUHU216DAVISVP2,2013-07-12 21:49:00,
2013-07-12 17:54:00,71.5,65.7,30.01,NW,307,0.0,6.0,82,0.00,,,0.10,WUHU216DAVISVP2,2013-07-12 21:54:00,
2013-07-12 17:59:00,71.4,65.6,30.01,NW,314,2.0,6.0,82,0.00,,,0.10,WUHU216DAVISVP2,2013-07-12 21:59:00,
2013-07-12 18:04:00,71.3,65.5,30.01,NNW,347,3.0,6.0,82,0.00,,,0.10,WUHU216DAVISVP2,2013-07-12 22:04:00,
2013-07-12 18:09:00,71.3,65.9,30.01,NNW,347,0.0,6.0,83,0.00,,,0.10,WUHU216DAVISVP2,2013-07-12 22:09:00,
2013-07-12 18:14:00,71.3,65.9,30.01,NNW,347,1.0,4.0,83,0.00,,,0.10,WUHU216DAVISVP2,2013-07-12 22:14:00,
2013-07-12 18:19:00,71.2,65.8,30.01,SSW,212,0.0,4.0,83,0.00,,,0.10,WUHU216DAVISVP2,2013-07-12 22:19:00,
2013-07-12 18:24:00,71.1,66.4,30.01,SSW,212,0.0,4.0,85,0.00,,,0.10,WUHU216DAVISVP2,2013-07-12 22:24:00,
2013-07-12 18:29:00,71.0,66.3,30.01,SSW,212,0.0,3.0,85,0.01,,,0.11,WUHU216DAVISVP2,2013-07-12 22:29:00,
2013-07-12 18:35:00,70.8,66.7,30.01,SSW,212,1.0,3.0,87,0.02,,,0.12,WUHU216DAVISVP2,2013-07-12 22:35:00,
2013-07-12 18:40:00,70.4,66.7,30.01,SW,220,1.0,1.0,88,0.02,,,0.12,WUHU216DAVISVP2,2013-07-12 22:40:00,
2013-07-12 18:45:00,70.1,66.7,30.01,West,269,0.0,3.0,89,0.03,,,0.13,WUHU216DAVISVP2,2013-07-12 22:45:00,
2013-07-12 18:50:00,69.6,66.5,30.01,West,268,0.0,3.0,90,0.03,,,0.13,WUHU216DAVISVP2,2013-07-12 22:50:00,
2013-07-12 18:55:00,69.2,66.4,30.01,West,268,0.0,3.0,91,0.03,,,0.13,WUHU216DAVISVP2,2013-07-12 22:55:00,
2013-07-12 19:00:00,68.8,66.0,30.02,West,268,0.0,2.0,91,0.04,,,0.14,WUHU216DAVISVP2,2013-07-12 23:00:00,
2013-07-12 19:05:00,68.6,66.2,30.01,West,268,0.0,2.0,92,0.04,,,0.14,WUHU216DAVISVP2,2013-07-12 23:05:00,
2013-07-12 19:11:00,68.4,66.0,30.02,West,268,0.0,1.0,92,0.04,,,0.14,WUHU216DAVISVP2,2013-07-12 23:11:00,
2013-07-12 19:16:00,68.2,66.1,30.02,West,268,0.0,1.0,93,0.04,,,0.14,WUHU216DAVISVP2,2013-07-12 23:16:00,
2013-07-12 19:21:00,68.1,66.3,30.02,West,268,0.0,1.0,94,0.04,,,0.14,WUHU216DAVISVP2,2013-07-12 23:21:00,
2013-07-12 19:27:00,68.0,66.2,30.02,West,268,0.0,1.0,94,0.04,,,0.14,WUHU216DAVISVP2,2013-07-12 23:27:00,
2013-07-12 19:32:00,68.0,66.2,30.02,West,268,0.0,1.0,94,0.03,,,0.14,WUHU216DAVISVP2,2013-07-12 23:32:00,
2013-07-12 19:37:00,68.0,66.5,30.02,West,268,0.0,1.0,95,0.02,,,0.14,WUHU216DAVISVP2,2013-07-12 23:37:00,
2013-07-12 19:42:00,67.9,66.4,30.03,West,268,0.0,1.0,95,0.01,,,0.14,WUHU216DAVISVP2,2013-07-12 23:42:00,
2013-07-12 19:47:00,67.9,66.4,30.03,West,268,0.0,1.0,95,0.01,,,0.14,WUHU216DAVISVP2,2013-07-12 23:47:00,
2013-07-12 19:52:00,67.8,66.3,30.03,West,268,0.0,1.0,95,0.01,,,0.14,WUHU216DAVISVP2,2013-07-12 23:52:00,
2013-07-12 19:57:00,67.7,66.2,30.03,West,268,0.0,1.0,95,0.00,,,0.14,WUHU216DAVISVP2,2013-07-12 23:57:00,
2013-07-12 20:02:00,67.7,66.5,30.03,West,268,0.0,1.0,96,0.00,,,0.14,WUHU216DAVISVP2,2013-07-13 00:02:00,
2013-07-12 20:07:00,67.7,66.5,30.03,West,268,0.0,0.0,96,0.00,,,0.14,WUHU216DAVISVP2,2013-07-13 00:07:00,
2013-07-12 20:12:00,67.6,66.4,30.03,West,268,0.0,1.0,96,0.00,,,0.14,WUHU216DAVISVP2,2013-07-13 00:12:00,
2013-07-12 20:18:00,67.6,66.4,30.03,West,268,0.0,1.0,96,0.00,,,0.14,WUHU216DAVISVP2,2013-07-13 00:18:00,
2013-07-12 20:23:00,67.5,66.3,30.03,West,268,0.0,1.0,96,0.00,,,0.14,WUHU216DAVISVP2,2013-07-13 00:23:00,
2013-07-12 20:28:00,67.5,66.3,30.03,West,268,0.0,1.0,96,0.00,,,0.14,WUHU216DAVISVP2,2013-07-13 00:28:00,
2013-07-12 20:33:00,67.4,66.2,30.03,West,268,0.0,0.0,96,0.00,,,0.14,WUHU216DAVISVP2,2013-07-13 00:33:00,
2013-07-12 20:38:00,67.4,66.2,30.03,West,268,0.0,0.0,96,0.00,,,0.14,WUHU216DAVISVP2,2013-07-13 00:38:00,
2013-07-12 20:43:00,67.4,66.2,30.03,West,268,0.0,0.0,96,0.00,,,0.14,WUHU216DAVISVP2,2013-07-13 00:43:00,
2013-07-12 20:48:00,67.3,66.1,30.03,West,268,0.0,0.0,96,0.00,,,0.14,WUHU216DAVISVP2,2013-07-13 00:48:00,
2013-07-12 20:53:00,67.3,66.1,30.03,West,268,0.0,0.0,96,0.00,,,0.14,WUHU216DAVISVP2,2013-07-13 00:53:00,
2013-07-12 20:58:00,67.2,66.0,30.03,West,268,0.0,0.0,96,0.00,,,0.14,WUHU216DAVISVP2,2013-07-13 00:58:00,
2013-07-12 21:03:00,67.1,65.9,30.03,West,268,0.0,0.0,96,0.00,,,0.14,WUHU216DAVISVP2,2013-07-13 01:03:00,
2013-07-12 21:09:00,67.1,65.9,30.04,West,268,0.0,1.0,96,0.00,,,0.14,WUHU216DAVISVP2,2013-07-13 01:09:00,
2013-07-12 21:14:00,67.0,65.8,30.03,West,268,0.0,1.0,96,0.00,,,0.14,WUHU216DAVISVP2,2013-07-13 01:14:00,
2013-07-12 21:19:00,67.0,65.8,30.04,West,268,0.0,1.0,96,0.00,,,0.14,WUHU216DAVISVP2,2013-07-13 01:19:00,
2013-07-12 21:24:00,66.8,65.6,30.04,West,268,0.0,1.0,96,0.00,,,0.14,WUHU216DAVISVP2,2013-07-13 01:24:00,
2013-07-12 21:30:00,66.7,65.5,30.04,West,268,0.0,0.0,96,0.00,,,0.14,WUHU216DAVISVP2,2013-07-13 01:30:00,
2013-07-12 21:35:00,66.6,65.4,30.04,West,268,0.0,0.0,96,0.00,,,0.14,WUHU216DAVISVP2,2013-07-13 01:35:00,
2013-07-12 21:40:00,66.6,65.4,30.04,West,268,0.0,0.0,96,0.00,,,0.14,WUHU216DAVISVP2,2013-07-13 01:40:00,
2013-07-12 21:45:00,66.6,65.7,30.05,West,268,0.0,0.0,97,0.00,,,0.14,WUHU216DAVISVP2,2013-07-13 01:45:00,
2013-07-12 21:51:00,66.5,65.6,30.05,West,268,0.0,0.0,97,0.00,,,0.14,WUHU216DAVISVP2,2013-07-13 01:51:00,
2013-07-12 21:56:00,66.5,65.6,30.05,West,268,0.0,0.0,97,0.00,,,0.14,WUHU216DAVISVP2,2013-07-13 01:56:00,
2013-07-12 22:01:00,66.5,65.6,30.05,West,268,0.0,0.0,97,0.00,,,0.14,WUHU216DAVISVP2,2013-07-13 02:01:00,
2013-07-12 22:06:00,66.4,65.5,30.05,West,268,0.0,0.0,97,0.00,,,0.14,WUHU216DAVISVP2,2013-07-13 02:06:00,
2013-07-12 22:11:00,66.3,65.4,30.05,West,268,0.0,0.0,97,0.00,,,0.14,WUHU216DAVISVP2,2013-07-13 02:11:00,
2013-07-12 22:16:00,66.2,65.3,30.05,West,268,0.0,0.0,97,0.00,,,0.14,WUHU216DAVISVP2,2013-07-13 02:16:00,
2013-07-12 22:22:00,66.2,65.3,30.05,West,268,0.0,0.0,97,0.00,,,0.14,WUHU216DAVISVP2,2013-07-13 02:22:00,
2013-07-12 22:27:00,66.2,65.3,30.05,West,268,0.0,0.0,97,0.00,,,0.14,WUHU216DAVISVP2,2013-07-13 02:27:00,
2013-07-12 22:32:00,66.2,65.3,30.05,West,268,0.0,0.0,97,0.00,,,0.14,WUHU216DAVISVP2,2013-07-13 02:32:00,
2013-07-12 22:37:00,66.2,65.3,30.06,West,268,0.0,0.0,97,0.00,,,0.14,WUHU216DAVISVP2,2013-07-13 02:37:00,
2013-07-12 22:43:00,66.2,65.3,30.06,West,268,0.0,0.0,97,0.00,,,0.14,WUHU216DAVISVP2,2013-07-13 02:43:00,
2013-07-12 22:48:00,66.1,65.2,30.06,West,268,0.0,0.0,97,0.00,,,0.14,WUHU216DAVISVP2,2013-07-13 02:48:00,
2013-07-12 22:53:00,66.0,65.1,30.06,West,268,0.0,0.0,97,0.00,,,0.14,WUHU216DAVISVP2,2013-07-13 02:53:00,
2013-07-12 22:58:00,66.0,65.1,30.06,West,268,0.0,0.0,97,0.00,,,0.14,WUHU216DAVISVP2,2013-07-13 02:58:00,
2013-07-12 23:03:00,65.9,65.0,30.06,West,268,0.0,0.0,97,0.00,,,0.14,WUHU216DAVISVP2,2013-07-13 03:03:00,
2013-07-12 23:08:00,65.9,65.0,30.06,West,268,0.0,0.0,97,0.00,,,0.14,WUHU216DAVISVP2,2013-07-13 03:08:00,
2013-07-12 23:13:00,65.9,65.0,30.06,West,268,0.0,0.0,97,0.00,,,0.14,WUHU216DAVISVP2,2013-07-13 03:13:00,
2013-07-12 23:18:00,66.0,65.1,30.06,West,268,0.0,0.0,97,0.00,,,0.14,WUHU216DAVISVP2,2013-07-13 03:18:00,
2013-07-12 23:23:00,66.0,65.1,30.06,West,268,0.0,0.0,97,0.00,,,0.14,WUHU216DAVISVP2,2013-07-13 03:23:00,
2013-07-12 23:28:00,66.0,65.1,30.07,West,268,0.0,0.0,97,0.00,,,0.14,WUHU216DAVISVP2,2013-07-13 03:28:00,
2013-07-12 23:33:00,65.9,65.3,30.07,West,268,0.0,0.0,98,0.00,,,0.14,WUHU216DAVISVP2,2013-07-13 03:33:00,
2013-07-12 23:38:00,66.0,65.4,30.07,West,268,0.0,0.0,98,0.00,,,0.14,WUHU216DAVISVP2,2013-07-13 03:38:00,
2013-07-12 23:43:00,66.0,65.4,30.07,West,268,0.0,0.0,98,0.00,,,0.14,WUHU216DAVISVP2,2013-07-13 03:43:00,
2013-07-12 23:48:00,66.1,65.5,30.07,West,268,0.0,0.0,98,0.00,,,0.14,WUHU216DAVISVP2,2013-07-13 03:48:00,
2013-07-12 23:53:00,66.1,65.5,30.07,West,268,0.0,0.0,98,0.00,,,0.14,WUHU216DAVISVP2,2013-07-13 03:53:00,
2013-07-12 23:59:00,66.1,65.5,30.08,West,268,0.0,0.0,98,0.00,,,0.14,WUHU216DAVISVP2,2013-07-13 03:59:00,